Terminal Aerodrome Forecast
Issued by NWS

Home | Current Version | Previous Version | Text Only | Print | Product List | Glossary On
Versions: 1 2 3 4 5 6 7 8 9 10 11 12
026
FTUS45 KFGZ 091720
TAFPGA
TAF
KPGA 091720Z 0918/1018 VRB05KT P6SM FEW120 SCT170 BKN200=

USA.gov is the U.S. government's official web portal to all federal, state and local government web resources and services.